星链-4789 (STARLINK-4789 )

导读

STARLINK-4789是美国SpaceX星链互联网卫星星座的一员,于2022年9月19日发射升空,属于星链项目批量部署的低轨卫星之一。它运行在近地轨道,主要为全球用户提供高速宽带互联网服务,尤其覆盖偏远与网络基础设施匮乏区域,延续了星链星座规模化部署、构建全球低轨卫星通信网络的目标。

Basic Information
目录编号:
53868
目录名称:
STARLINK-4789
国际标识:
2022-114BC
轨道中心:
EARTH
卫星名称:
星链-4789
卫星全名:
星链-4789 (STARLINK-4789 )
卫星状态:
在轨 (已飞行1446 天)
发射日期:
2022-09-19 UTC
国别 :
美国 (US)
星等 :
--
Orbit Information
数据来源 国际轨道数据
星历时间: 2026-09-04T03:21:06+0800
9小时前
查看轨道信息
半长轴: 6837.878km
偏心率: 0.000135
轨道倾角: 53.160°
近地点辐角 86.740°
升交点赤经 171.927°
平近点角 273.376°
近地点: 458.817km
远地点: 460.665km
周期: 93.787分钟
每日圈数: 15.353972
Detailed Information
固有亮度:
5
最大亮度:
2.5
卫星平台:
Starlink v1.5
覆盖范围:
全球
运营商:
太空探索技术公司
运营商所在国:
美国
制造商(研发单位):
太空探索技术公司
制造商所在国:
美国
使用方式:
暂无
Satellite Introduction
星链(Starlink)计划是由太空探索技术公司(SpaceX)提出的一个巨型低轨卫星互联网星座项目,计划在2019年至2024年间在太空搭建由约1.2万颗卫星组成的“星链”网络,其中1584颗将部署在地球上空550千米处的近地轨道,并从2020年开始工作。该卫星仍在工作。
2D Orbit Map
3D Orbit Map
Orbit Altitude Analysis Chart
Orbit Inclination Analysis Chart
Orbit Comprehensive Analysis Chart
View Comprehensive Chart
Conjunction Data List
Event ID Objects TCA Miss Dist (km) Collision Risk Probability Collision Risk Index (CRI) Action
CDM_260828-211105-386806-171023
2026-08-28T
21:11:14+0000
2.971 km
极远距离
1.215069E-6 低风险 0.37
CDM_260904-004405-386805-900421
2026-09-04T
00:44:21+0000
2.957 km
极远距离
1.209313E-6 低风险 0.37
CDM_260904-130705-286205-386821
2026-09-04T
13:07:28+0000
2.824 km
极远距离
1.192861E-6 低风险 0.37
CDM_260902-183405-386806-807621
2026-09-02T
18:34:58+0000
2.986 km
极远距离
1.056227E-6 低风险 0.35
CDM_260904-151705-386806-919721
2026-09-04T
15:17:42+0000
2.850 km
极远距离
5.045561E-7 极低风险 0.29